Wind_Speed
15 10 18 17 18 12 10 10 10 14 13 11 12 11 14 13 15 15 15 17 16 18 17 18 17 17 16 15 17 16 14 12 9 8 9 8 6 6 9 10 12 17 19
13 14 22 19 16 14 12 13 11 10 12 14 12 12 11 13 13 14 14 15 15 16 17 17 16 16 17 19 20 20 20 18 13 10 4 3 3 3 3 4 5 9 11
13 20 23 19 16 15 15 14 14 12 13 11 12 11 11 13 14 13 14 14 15 15 17 14 16 14 17 19 19 19 17 16 16 17 17 12 10 14 9 5 1 3 7
14 20 23 19 15 14 14 13 13 11 11 11 12 12 13 10 13 12 13 13 13 13 14 14 15 15 17 18 17 19 23 14 13 14 20 21 14 16 19 20 19 13 13
15 20 19 16 16 14 14 13 13 13 12 11 11 10 10 11 10 11 13 12 13 12 14 15 15 18 20 22 20 19 23 15 10 9 14 19 20 16 17 18 18 21 17
14 19 20 17 15 15 14 16 12 12 11 12 11 11 10 10 11 11 11 12 12 13 12 13 14 16 19 18 16 16 22 11 15 14 13 19 16 17 17 19 19 16 18
14 14 16 19 18 17 14 13 12 12 11 10 10 9 9 9 10 10 11 11 11 11 12 13 14 15 15 16 14 14 15 15 12 14 13 14 17 16 16 15 15 16 15
14 13 14 18 17 17 14 15 14 11 10 9 9 9 9 9 9 9 9 9 9 10 11 12 13 14 14 13 12 11 13 14 11 13 13 14 13 15 15 15 14 14 14
15 14 16 17 15 18 15 13 12 11 10 9 9 8 8 8 8 8 8 8 8 8 10 11 11 12 13 13 12 12 13 12 10 12 12 11 13 14 14 14 14 15 14
16 13 15 14 17 14 15 15 13 12 9 9 8 8 8 8 8 7 7 7 7 7 9 9 10 11 11 11 11 10 10 10 9 11 11 10 11 11 11 11 12 13 12
18 14 13 12 15 15 15 13 11 11 10 9 9 8 8 8 7 6 6 5 6 6 7 7 8 9 10 10 10 10 9 9 9 10 9 9 9 9 8 10 10 11 11
23 18 15 13 13 14 15 13 12 11 11 9 9 9 8 7 6 7 4 5 5 5 6 7 7 7 7 8 8 8 8 8 9 9 8 8 8 7 7 8 10 10 11
24 21 20 15 12 13 15 13 12 12 11 11 11 10 9 8 7 3 3 3 4 3 5 5 6 6 6 8 8 8 8 8 7 8 7 7 7 7 8 8 10 11 11
26 24 23 19 16 15 13 13 12 14 14 13 13 12 10 8 5 6 5 5 4 3 4 5 5 6 7 7 7 7 6 7 6 6 6 7 7 8 8 9 10 10 10
27 24 26 24 22 20 18 17 15 15 14 13 12 10 10 9 10 9 5 4 3 3 3 4 5 6 6 6 6 5 4 4 4 4 5 6 7 7 8 8 9 8 8
26 26 25 29 28 26 25 22 18 15 12 13 13 12 12 12 11 9 6 5 5 5 5 5 5 6 5 4 4 4 3 2 1 3 5 6 7 8 8 7 7 6 5
28 25 26 28 29 29 26 22 19 17 15 14 14 13 12 13 11 10 8 7 6 7 6 6 6 5 5 5 5 4 3 1 1 3 5 7 6 7 6 5 5 4 4
29 30 27 26 29 29 28 24 21 20 19 17 15 13 13 14 13 12 10 8 8 8 8 7 6 6 5 5 5 4 3 2 3 5 5 6 5 7 5 5 4 3 3
32 31 31 29 27 28 28 26 24 22 21 19 17 15 14 15 15 13 11 10 10 10 9 9 8 6 5 5 4 4 4 3 4 8 4 4 5 6 4 2 2 3 4
32 33 31 31 27 26 26 27 27 25 24 23 21 19 17 16 16 15 14 13 13 12 11 11 9 8 7 6 6 6 6 6 6 8 3 5 5 5 2 2 1 3 3
32 33 34 33 31 27 29 31 32 31 27 25 23 21 20 18 17 17 16 16 16 14 12 12 11 9 8 7 7 8 7 7 8 10 4 5 6 5 1 1 0 2 3
33 34 34 35 33 30 29 30 31 28 25 23 21 21 21 21 19 18 18 18 18 16 15 14 13 11 10 10 9 9 6 9 11 10 7 6 7 6 4 3 1 1 2
33 33 34 35 35 33 30 27 28 26 26 26 27 25 24 23 22 21 19 19 20 19 17 16 15 13 12 13 13 8 6 6 11 12 11 8 9 8 6 5 4 3 3
34 34 34 35 35 35 32 30 31 32 32 30 26 24 23 24 25 23 21 21 22 21 20 18 16 16 16 15 16 17 12 8 8 8 13 11 11 9 8 7 6 5 5
35 33 32 33 35 35 34 33 32 33 31 28 26 25 24 24 25 25 25 24 24 23 21 20 20 19 18 18 18 16 18 16 14 11 7 13 13 11 9 9 9 8 7
34 35 31 31 33 34 35 35 34 33 32 30 30 29 28 27 26 27 27 27 26 26 25 23 22 22 21 20 21 21 20 20 18 18 16 11 12 12 12 13 11 9 10
Wind_Direction
193 197 174 164 162 161 135 117 140 130 113 105 107 93 86 84 78 79 85 81 81 82 80 78 79 82 93 96 96 93 88 81 78 87 114 119 112 105 105 102 99 102 100
189 179 160 144 148 145 139 121 118 116 122 108 100 102 94 95 83 83 90 90 87 83 76 79 77 80 85 91 88 87 86 75 66 63 86 134 109 83 104 123 119 107 119
174 163 158 141 144 139 140 140 133 126 116 122 116 105 103 97 89 91 92 90 84 86 87 79 79 79 83 95 92 86 85 83 85 84 84 92 93 77 71 78 105 117 133
173 162 160 153 149 145 150 136 140 133 128 123 117 107 101 97 99 87 88 92 87 86 87 83 86 83 89 98 94 98 92 99 89 86 94 86 93 86 85 75 75 77 90
165 163 156 158 151 149 149 144 137 136 132 123 112 111 115 110 105 104 97 93 94 92 87 87 85 92 105 110 109 109 91 109 117 93 83 91 83 78 82 83 86 76 74
168 163 159 161 160 154 156 147 146 142 143 136 132 121 115 116 112 103 102 101 99 93 92 91 93 97 105 118 114 107 107 100 91 87 87 88 79 88 81 90 81 77 78
172 164 170 158 161 165 163 160 158 152 149 149 144 132 122 111 105 103 102 100 99 97 91 88 93 97 105 114 111 103 104 105 87 87 84 90 97 87 81 85 84 88 76
180 183 189 171 169 162 165 166 159 163 158 151 139 130 120 110 106 105 104 103 98 94 91 92 93 97 98 100 106 105 98 99 97 86 74 66 71 76 77 78 78 80 76
196 197 199 180 177 171 173 178 184 170 166 153 145 135 125 120 114 110 108 101 97 97 94 92 92 92 94 92 91 88 87 94 87 76 68 62 59 64 70 74 73 73 71
203 206 196 196 180 184 177 180 175 177 168 163 157 148 139 131 122 112 104 101 100 99 96 100 100 98 94 94 92 90 85 87 89 79 71 66 64 66 70 72 72 71 69
208 212 197 202 196 193 189 187 185 184 176 172 165 160 152 143 134 118 117 121 109 106 107 107 103 107 102 98 101 99 96 98 87 83 78 72 70 68 71 76 76 73 72
204 209 216 201 196 199 193 194 197 193 186 182 174 169 164 170 156 135 138 122 119 125 119 117 113 108 114 110 104 103 99 92 88 90 82 80 79 77 75 81 80 74 70
206 208 219 216 207 210 202 192 201 204 198 194 187 181 181 190 173 145 169 151 136 138 132 133 126 119 118 119 106 105 96 89 83 87 86 88 80 77 71 70 74 72 68
212 210 215 217 220 222 216 207 213 210 203 201 197 193 194 201 187 208 191 184 160 171 150 151 141 133 130 121 114 100 101 95 85 83 79 79 81 80 74 70 66 63 62
219 217 209 212 218 222 225 227 227 219 210 209 208 212 212 211 213 212 199 193 178 174 162 157 147 141 140 132 119 111 100 86 87 80 77 79 83 84 81 74 68 63 58
223 224 216 213 215 219 228 229 228 225 222 220 220 217 219 216 212 210 206 208 204 196 188 179 165 156 143 136 135 129 116 104 108 85 85 93 86 87 82 72 68 61 56
225 227 225 221 220 221 225 227 227 227 227 226 225 217 218 217 214 208 211 211 209 204 196 190 187 174 161 163 161 163 152 141 193 143 101 90 92 102 85 84 76 62 55
222 225 229 228 227 224 223 225 223 226 229 229 231 224 220 218 215 212 216 217 218 211 206 203 204 195 184 193 187 188 205 211 187 164 115 101 120 122 83 95 50 50 51
223 225 226 231 233 228 223 223 224 225 229 233 235 233 227 220 218 219 221 225 226 218 213 212 209 208 206 215 216 212 201 192 165 156 129 141 143 134 87 71 45 66 41
221 226 231 233 236 233 226 222 223 228 230 233 237 236 231 227 223 223 224 226 230 221 216 217 215 216 216 217 217 205 180 166 178 179 166 187 167 158 90 40 43 70 50
217 221 226 228 234 233 225 222 222 227 228 230 231 234 233 231 229 227 226 228 231 226 220 221 221 220 218 216 208 189 178 185 190 189 203 174 183 184 216 282 232 53 36
215 219 224 229 235 237 235 231 230 233 235 239 238 235 234 235 234 233 230 231 233 230 224 225 225 219 219 211 203 192 193 195 192 197 202 188 199 204 232 268 304 5 8
214 219 224 230 234 239 242 237 234 234 237 237 236 236 235 237 237 236 234 233 234 233 229 230 230 228 224 218 208 199 191 203 197 207 202 201 208 220 241 263 288 290 294
221 225 229 232 234 238 244 241 237 234 234 239 242 244 242 240 240 239 236 234 235 235 230 230 233 233 231 224 219 216 220 207 203 200 214 209 216 218 235 249 260 258 263
223 228 232 234 233 237 240 245 245 243 245 249 251 250 247 245 243 242 239 236 236 237 237 233 234 234 234 230 229 230 228 226 220 219 216 217 222 224 232 239 244 247 252
225 227 233 233 236 238 241 247 248 249 250 248 248 248 250 250 247 244 241 239 238 238 239 238 239 238 236 236 235 233 233 233 235 233 232 231 229 228 232 236 245 247 246
Height
1542 1543 1545 1546 1549 1550 1551 1552 1553 1553 1553 1553 1552 1551 1551 1551 1550 1549 1548 1548 1549 1548 1548 1547 1547 1547 1546 1546 1547 1548 1549 1550 1548 1549 1548 1550 1551 1551 1553 1554 1554 1553 1554
1540 1541 1544 1547 1549 1550 1551 1552 1553 1553 1553 1554 1554 1554 1553 1552 1552 1550 1550 1550 1550 1550 1551 1549 1549 1548 1547 1548 1549 1550 1551 1552 1551 1549 1549 1550 1552 1553 1553 1555 1554 1555 1556
1539 1541 1544 1547 1549 1550 1551 1552 1553 1554 1554 1554 1554 1554 1553 1553 1553 1553 1552 1552 1551 1551 1551 1551 1551 1550 1548 1550 1551 1552 1554 1554 1552 1551 1551 1551 1553 1555 1554 1554 1554 1555 1554
1539 1541 1543 1547 1548 1550 1551 1553 1553 1554 1554 1554 1554 1555 1555 1554 1554 1555 1552 1552 1553 1553 1553 1553 1551 1550 1551 1551 1551 1551 1553 1555 1553 1554 1554 1553 1556 1556 1555 1556 1556 1554 1555
1539 1541 1543 1546 1548 1549 1550 1552 1552 1553 1553 1553 1554 1555 1555 1556 1555 1554 1553 1554 1553 1553 1553 1552 1552 1552 1553 1553 1553 1554 1555 1555 1555 1556 1556 1555 1558 1558 1557 1557 1557 1558 1556
1539 1541 1543 1545 1548 1550 1551 1551 1553 1554 1554 1554 1554 1555 1556 1555 1554 1553 1554 1554 1554 1554 1555 1554 1554 1555 1555 1555 1557 1556 1555 1556 1558 1558 1558 1558 1559 1560 1559 1558 1559 1558 1559
1537 1541 1543 1545 1547 1548 1550 1551 1552 1552 1553 1553 1553 1553 1554 1554 1554 1555 1556 1556 1556 1557 1557 1556 1557 1557 1557 1557 1558 1558 1558 1558 1560 1560 1561 1560 1559 1560 1559 1559 1560 1560 1560
1538 1541 1543 1544 1545 1547 1548 1549 1551 1551 1552 1552 1553 1554 1554 1555 1556 1557 1557 1558 1558 1559 1559 1559 1559 1559 1559 1559 1560 1561 1560 1561 1561 1562 1561 1561 1561 1560 1559 1560 1560 1560 1560
1539 1541 1542 1543 1544 1546 1548 1549 1549 1550 1551 1552 1553 1554 1555 1556 1557 1557 1558 1559 1560 1560 1560 1560 1561 1561 1561 1561 1562 1562 1562 1562 1562 1563 1562 1562 1562 1561 1561 1561 1562 1561 1561
1538 1540 1542 1543 1544 1545 1547 1548 1549 1550 1551 1552 1553 1554 1555 1557 1557 1558 1559 1560 1561 1562 1562 1562 1562 1562 1562 1562 1563 1564 1563 1564 1564 1563 1563 1564 1563 1563 1563 1563 1563 1562 1562
1537 1538 1540 1541 1543 1544 1546 1547 1548 1549 1551 1552 1553 1555 1556 1557 1558 1559 1560 1561 1561 1562 1562 1563 1563 1562 1563 1563 1564 1564 1564 1564 1564 1564 1565 1565 1565 1565 1564 1564 1564 1564 1563
1533 1535 1537 1540 1541 1543 1544 1546 1548 1549 1550 1552 1553 1554 1556 1557 1558 1558 1560 1560 1561 1562 1562 1563 1562 1563 1563 1564 1564 1564 1565 1565 1564 1565 1565 1565 1565 1565 1565 1565 1564 1564 1564
1533 1534 1535 1537 1539 1541 1542 1544 1546 1548 1549 1551 1552 1554 1555 1556 1557 1557 1559 1560 1561 1561 1562 1562 1562 1563 1564 1564 1564 1564 1564 1564 1564 1565 1565 1565 1565 1564 1565 1565 1564 1564 1564
1529 1532 1533 1535 1537 1538 1539 1542 1544 1547 1548 1549 1551 1552 1553 1554 1555 1557 1558 1560 1560 1561 1561 1562 1562 1563 1563 1563 1563 1564 1564 1564 1564 1565 1565 1565 1564 1564 1564 1564 1564 1564 1564
1526 1529 1531 1533 1534 1535 1537 1540 1542 1544 1545 1547 1549 1550 1552 1554 1555 1556 1557 1558 1559 1560 1560 1561 1562 1562 1563 1563 1563 1563 1564 1564 1564 1564 1564 1564 1564 1564 1564 1564 1564 1564 1565
1522 1524 1528 1530 1533 1534 1535 1538 1540 1541 1543 1545 1547 1549 1551 1552 1554 1555 1556 1557 1558 1559 1560 1561 1561 1562 1562 1562 1563 1563 1563 1563 1563 1563 1564 1564 1564 1564 1564 1564 1564 1565 1565
1517 1521 1523 1526 1529 1531 1533 1536 1537 1539 1541 1543 1545 1547 1549 1551 1552 1553 1555 1556 1557 1558 1559 1560 1561 1561 1561 1561 1562 1562 1562 1562 1562 1562 1563 1563 1564 1564 1565 1565 1565 1565 1565
1514 1516 1520 1523 1525 1528 1530 1533 1535 1537 1539 1541 1543 1545 1547 1549 1551 1552 1553 1555 1556 1557 1559 1559 1560 1560 1560 1560 1560 1560 1560 1560 1561 1561 1562 1563 1564 1564 1565 1565 1564 1565 1564
1509 1513 1516 1519 1522 1525 1528 1530 1533 1535 1536 1538 1540 1542 1544 1546 1548 1550 1551 1553 1555 1556 1557 1558 1558 1559 1559 1559 1559 1559 1559 1559 1559 1560 1561 1562 1562 1563 1564 1564 1564 1563 1563
1506 1509 1513 1515 1519 1522 1525 1528 1530 1532 1534 1536 1537 1539 1541 1543 1545 1547 1549 1551 1553 1554 1555 1556 1557 1557 1557 1557 1557 1557 1557 1557 1558 1559 1560 1560 1561 1561 1562 1562 1562 1562 1562
1502 1505 1508 1511 1514 1518 1520 1522 1525 1525 1529 1532 1534 1536 1538 1540 1542 1544 1547 1548 1550 1552 1553 1554 1554 1554 1555 1555 1556 1556 1556 1555 1556 1557 1558 1558 1559 1559 1560 1560 1560 1560 1559
1497 1500 1504 1507 1510 1513 1516 1518 1520 1523 1526 1528 1531 1533 1535 1536 1538 1540 1543 1545 1547 1548 1549 1551 1552 1552 1553 1553 1554 1554 1554 1556 1554 1554 1555 1556 1557 1557 1557 1558 1558 1557 1557
1495 1497 1500 1503 1506 1509 1512 1516 1519 1522 1523 1524 1525 1527 1530 1533 1535 1537 1539 1541 1543 1545 1546 1548 1549 1549 1550 1551 1551 1552 1552 1551 1551 1551 1552 1553 1554 1554 1554 1555 1555 1555 1555
1491 1494 1496 1499 1503 1506 1509 1511 1513 1514 1516 1518 1521 1524 1527 1529 1531 1532 1535 1538 1540 1541 1542 1544 1546 1546 1547 1548 1548 1548 1549 1549 1548 1549 1549 1549 1550 1550 1551 1551 1552 1553 1553
1491 1492 1494 1496 1499 1502 1506 1507 1510 1511 1513 1516 1519 1521 1523 1525 1527 1528 1530 1533 1535 1537 1539 1540 1541 1543 1543 1545 1545 1545 1546 1546 1545 1545 1545 1546 1546 1547 1547 1548 1549 1549 1550
1488 1491 1493 1495 1497 1499 1502 1504 1506 1507 1510 1512 1514 1515 1518 1520 1522 1524 1525 1527 1530 1532 1534 1536 1537 1538 1540 1540 1541 1541 1542 1543 1543 1543 1543 1543 1544 1544 1545 1545 1545 1546 1547